#timestamp,LO_Frequency,Hit,StdDev 
1691499615.2,286046993.7,N
1691499635.0,286046996.1,N
1691499635.9,286046996.1,N
1691499655.8,286046992.3,N
1691499675.6,286046991.2,Y
1691499695.5,286046994.6,P
1691499715.3,286046995.6,P
1691499735.1,286046995.6,P
1691499755.9,286046996.9,Y
1691499775.7,286047001.9,P
1691499795.5,286046999.8,N
1691499815.4,286047003.8,N
1691499835.2,286047003.2,N
1691499855.1,286047001.4,N
1691499856.0,286047001.4,N
1691499875.8,286047007.6,Y
1691499895.6,286047005.2,P
1691499915.5,286047005.4,N
1691499935.3,286047005.3,N
1691499955.2,286047008.7,Y
1691499975.9,286047004.2,P
1691499995.7,286047000.3,P
1691500015.6,286047002.5,N
1691500035.4,286047002.4,N
1691500055.2,286047000.9,N
1691500075.1,286046997.9,N
1691500076.0,286046997.9,N
1691500095.8,286047000.8,N
1691500115.7,286046999.1,N
1691500135.5,286047000.2,N
1691500155.3,286047000.0,N
1691500175.2,286047002.0,N
1691500195.0,286047004.2,N
1691500195.9,286047004.2,N
1691500215.7,286047005.7,N
1691500235.6,286047005.8,N
1691500255.4,286047006.4,N
1691500275.3,286047004.8,N
1691500295.1,286047005.5,N
1691500296.0,286047005.5,N
1691500315.8,286047002.1,N
1691500335.7,286047004.3,N
1691500355.5,286047002.9,N
1691500375.3,286047003.3,N
1691500395.2,286047006.9,N
1691500415.0,286047008.1,Y
1691500415.9,286047008.1,P
1691500435.8,286047006.1,N
1691500455.6,286047008.1,P
1691500475.4,286047006.9,Y
1691500495.3,286047002.8,P
1691500515.1,286047004.0,N
1691500535.9,286047002.5,N
1691500555.7,286046998.7,N
1691500575.5,286047001.5,N
1691500595.4,286047002.3,N
1691500615.2,286047001.7,N
1691500635.0,286047001.9,N
1691500635.9,286047001.9,N
1691500655.8,286047000.9,N
1691500675.6,286047000.5,N
1691500695.5,286046998.2,N
1691500715.3,286047002.3,N
1691500735.1,286047003.5,N
1691500755.9,286047001.8,N
1691500775.7,286047005.6,Y
1691500795.5,286047004.1,P
1691500815.4,286047003.8,P
1691500835.2,286047002.8,N
1691500855.1,286047002.4,N
1691500856.0,286047002.4,N
1691500875.8,286047000.5,N
1691500895.6,286047000.7,N
1691500915.5,286046999.1,N
1691500935.3,286046997.7,N
1691500955.2,286046998.9,N
1691500975.9,286046995.2,N
1691500995.7,286046995.9,N
1691501015.6,286046992.4,N
1691501035.4,286046989.0,Y
1691501055.2,286046990.3,P
1691501075.1,286046992.9,N
1691501076.0,286046992.9,N
1691501095.8,286046992.1,N
1691501115.7,286046994.3,N
1691501135.5,286046993.3,N
1691501155.3,286046994.9,N
1691501175.2,286046997.1,N
1691501195.0,286046997.8,N
1691501195.9,286046997.8,N
1691501215.7,286046996.7,N
1691501235.6,286046997.7,N
1691501255.4,286046997.9,N
1691501275.3,286046996.8,N
1691501295.1,286046999.1,N
1691501296.0,286046999.1,N
1691501315.8,286047000.5,N
1691501335.7,286046997.4,N
1691501355.5,286046994.7,N
1691501375.4,286046994.3,N
1691501395.2,286046993.6,N
1691501415.0,286046990.7,Y
1691501415.9,286046990.7,P
1691501435.8,286046992.3,N
1691501455.6,286046996.0,N
1691501475.4,286046997.2,N
1691501495.3,286046995.3,N
1691501515.1,286046997.3,N
1691501535.9,286046995.6,N
1691501555.7,286046996.6,N
1691501575.5,286046999.3,N
1691501595.4,286046995.4,N
1691501615.2,286046994.0,N
1691501635.1,286046992.1,Y
1691501636.0,286046992.1,P
1691501655.8,286046999.4,N
1691501675.6,286046996.0,N
1691501695.5,286046995.1,N
1691501715.3,286047001.0,N
1691501765.2,286046999.3,E
1691501775.1,286046998.4,N
1691501795.8,286046996.7,P
1691501815.7,286047001.0,N
1691501835.5,286047002.1,N
1691501855.4,286047000.5,N
1691501875.2,286046998.5,N
1691501895.0,286046998.4,N
1691501895.9,286046998.4,N
1691501915.8,286046999.3,N
1691501935.6,286046997.6,N
1691501955.4,286046996.5,N
1691501975.3,286046997.4,N
1691501995.1,286046998.2,N
1691502015.9,286047000.3,N
1691502035.7,286046997.6,N
1691502055.5,286046994.5,Y
1691502075.4,286046995.0,P
1691502095.2,286046996.4,N
1691502115.0,286046990.4,P
1691502115.9,286046990.4,Y
1691502135.8,286046991.7,P
1691502155.6,286046997.2,N
1691502175.5,286046996.2,N
1691502195.3,286046995.3,N
1691502215.1,286046996.8,N
1691502235.9,286046997.8,N
1691502255.7,286046999.2,N
1691502275.5,286046998.7,N
1691502295.4,286047001.2,N
1691502315.2,286047011.9,Y
1691502335.1,286047002.5,P
1691502336.0,286047002.5,N
1691502355.8,286046996.6,N
1691502375.6,286046999.6,N
1691502395.5,286046999.3,N
1691502415.3,286046998.9,N
1691502435.2,286047000.5,N
1691502455.9,286047000.6,N
1691502475.7,286047000.4,N
1691502495.6,286047000.4,N
1691502515.4,286047001.0,N
1691502535.2,286047000.6,N
1691502555.1,286046998.5,N
1691502556.0,286046998.5,N
1691502575.8,286047002.0,N
1691502595.7,286047003.6,N
1691502615.5,286047001.1,N
1691502635.3,286047000.7,N
1691502655.2,286046998.5,N
1691502675.0,286046996.5,N
1691502675.9,286046996.5,N
1691502695.7,286046999.0,N
1691502715.6,286046997.7,N
1691502735.4,286046993.8,Y
1691502755.3,286046995.6,P
1691502775.1,286046990.2,P
1691502776.0,286046990.2,N
1691502795.8,286046993.9,N
1691502815.7,286046999.5,N
1691502835.5,286046998.0,N
1691502855.3,286046995.1,N
1691502875.2,286046999.6,N
1691502895.0,286046999.8,N
1691502895.9,286046999.8,N
1691502915.8,286046996.7,N
1691502935.6,286046998.9,N
1691502955.4,286046995.2,N
1691502975.3,286046992.9,N
1691502995.1,286046995.4,N
1691503015.8,286046997.4,N
1691503035.7,286046995.1,N
1691503055.5,286046994.9,N
1691503075.4,286046994.9,N
1691503095.2,286046996.0,N
1691503115.0,286046998.7,N
1691503115.9,286046998.7,N
1691503135.8,286046994.9,N
1691503155.6,286046995.8,N
1691503175.4,286046997.1,N
1691503195.3,286046990.2,Y
